www.pogodaiklimat.ru

Погода и климат >> Архив погоды >> Индонезия >> Меулабох


ПОГОДА в Меулабохе

  • Прогноз погоды в Меулабохе
  • Монитор погоды в Меулабохе

АРХИВ ПОГОДЫ в Меулабохе

Время (UTC), дата Ветер
(напр.,м/с)
 
Видим.   Явления Облачность Т
(С)
Тd
(С)
f
(%)
Тe
(С)
Тes
(С)
Комфортность P
(гПа)
Po
(гПа)
Тmin
(С)
Tmax
(С)
R
(мм)
R24
(мм)
S
(см)
09 12.02 ЮЗ 4 10 км 5/3 570 м
[Sc Ac trans Ci fib]
+31.8 +24.1 64 +44 +47 опасность
перегрева
1009.7 1009.1
12 12.02 ЮЗ 1 7000 м 9/5 570 м
[Sc Ac As Ci sp]
+29.2 +24.7 77 +42 +42 опасность
перегрева
1010.8 1010.2 +32.8
15 12.02 штиль 0 6000 м 6/4 570 м
[Sc Ac As Ci sp]
+26.4 +24.8 91 +38 +38 очень
душно
1013.4 1012.8
18 12.02 штиль 0 6000 м 6/4 570 м
[Sc Ac As Ci sp]
+25.2 +24.4 95 +35 +35 очень
душно
1013.3 1012.7
21 12.02 В 1 6000 м 8/4 570 м
[Sc Ac As Ci sp]
+24.5 +24.5 100 +34 +34 очень
душно
1012.0 1011.4
00 13.02 штиль 0 6000 м 8/4 570 м
[Sc Ac As Ci sp]
+23.8 +23.2 96 +32 +32 очень
душно
1013.1 1012.5 +23.0
03 13.02 СВ 1 10 км 6/4 600 м
[Sc Ac As Ci sp]
+28.4 +25.9 86 +42 +49 опасность
перегрева
1014.1 1013.5
06 13.02 З 4 12 км 3/1 600 м
[Cu med, cong Ac trans Ci fib]
+31.0 +27.1 80 +49 +61 опасность
перегрева
1012.2 1011.6
09 13.02 З 3 13 км 4/1 600 м
[Cu hum Ac trans Ci fib]
+31.7 +27.1 77 +50 +55 опасность
перегрева
1009.8 1009.2
12 13.02 З 2 9000 м 6/3 500 м
[Cu med, cong Ac As Ci fib]
+30.0 +27.1 84 +47 +47 опасность
перегрева
1010.8 1010.2 +32.2
15 13.02 С 1 6000 м 8/4 540 м
[Sc Ac trans Ci sp]
+28.1 +25.1 84 +41 +41 опасность
перегрева
1012.8 1012.2
18 13.02 С 1 6000 м 8/4 540 м
[Sc Ac trans Ci sp]
+26.3 +25.5 95 +38 +38 очень
душно
1012.3 1011.7
21 13.02 С 1 6000 м 9/4 540 м
[Sc Ac trans Ci fib]
+25.9 +25.1 95 +37 +37 очень
душно
1010.4 1009.8
00 14.02 С 1 8000 м 4/3 600 м
[Sc As trans Ci fib]
+25.2 +24.7 97 +35 +36 очень
душно
1011.1 1010.5 +23.6
03 14.02 З 1 10 км 4/3 540 м
[Cb calv As trans Ci fib]
+30.3 +24.8 72 +43 +52 опасность
перегрева
1012.8 1012.2
06 14.02 ЮЗ 2 10 км 4/4 600 м
[Cu Sc As trans Ci fib]
+32.1 +26.3 72 +49 +62 опасность
перегрева
1010.6 1010.0
09 14.02 ЮЗ 2 10 км 8/4 540 м
[Sc Ac trans Ci fib]
+32.3 +26.5 72 +49 +52 опасность
перегрева
1008.2 1007.6
12 14.02 С 1 7000 м {гроза} 9/5 500 м
[Sc Ac As Ci sp]
+29.8 +24.9 75 +43 +43 опасность
перегрева
1010.7 1010.1 +32.6
15 14.02 СВ 1 7000 м 9/6 480 м
[Cb cap Ac As Ci fib]
+26.4 +25.9 97 +39 +39 очень
душно
1012.6 1012.0
18 14.02 В 2 7000 м гроза без осадков 9/6 450 м
[Cb cap Ac As Ci fib]
+25.4 +25.0 98 +36 +36 очень
душно
1012.5 1012.9
21 14.02 СВ 1 6000 м 9/5 540 м
[Sc Ac As Ci sp]
+24.6 +23.5 94 +33 +33 очень
душно
1010.2 1009.6
00 15.02 СВ 1 6000 м 9/5 540 м
[Sc Ac As Ci sp]
+24.8 +23.7 94 +34 +34 очень
душно
1011.7 1011.1 +24.5
03 15.02 В 1 10 км 6/4 540 м
[Sc Ac As Ci sp]
+31.0 +27.3 81 +49 +57 опасность
перегрева
1012.9 1012.3
06 15.02 З 3 10 км 8/4 600 м
[Cu med, cong Ac As Ci sp]
+32.0 +28.4 81 +53 +61 опасность
перегрева
1010.7 1010.0
09 15.02 З 4 13 км 8/4 500 м
[Cu med, cong Ac As Ci fib]
+32.8 +27.6 74 +52 +55 опасность
перегрева
1008.8 1008.2
12 15.02 З 3 9000 м 9/5 480 м
[Cb cap Ac As Ci fib]
+29.8 +26.6 83 +46 +46 опасность
перегрева
1010.7 1010.1 +32.3
15 15.02 В 6 3000 м 10/6
[Cb calv As op]
+25.6 +23.7 89 +35 +35 очень
душно
1015.0 1014.4 16
18 15.02 СВ 1 5000 м слаб. дождь 10/6
[Cb calv As op]
+23.8 +23.5 98 +32 +32 очень
душно
1014.3 1013.7 9
21 15.02 СВ 1 4000 м в посл. час дождь 10/6
[Cb cap Ac As]
+23.7 +23.1 96 +31 +31 очень
душно
1012.5 1011.9 2
00 16.02 СВ 2 5000 м мгла {дождь} 9/5 480 м
[Sc Ac As Ci sp]
+23.6 +23.3 98 +32 +32 очень
душно
1012.8 1012.2 +23.5 27
03 16.02 В 2 8000 м 9/5 500 м
[Sc As op Ci sp]
+26.4 +25.3 94 +38 +42 очень
душно
1014.3 1013.6
06 16.02 З 3 10 км 8/4 540 м
[Sc Ac As Ci sp]
+30.8 +26.6 78 +47 +54 опасность
перегрева
1012.7 1012.1
09 16.02 ЮЗ 4 10 км 9/6 450 м
[Cb calv Ac trans Ci ing]
+30.0 +26.8 83 +47 +48 опасность
перегрева
1010.8 1010.2
12 16.02 штиль 0 7000 м 10/5 450 м
[Sc diur, vesp Ac trans Cs]
+28.6 +26.7 89 +44 +44 опасность
перегрева
1011.6 1011.0 +33.1
15 16.02 СВ 1 6000 м 9/5 480 м
[Sc Ac und Ci sp]
+26.5 +25.4 94 +39 +39 очень
душно
1014.1 1013.5
18 16.02 С 1 6000 м 9/4 480 м
[Sc Ac und Ci sp]
+25.0 +24.3 96 +35 +35 очень
душно
1013.5 1012.9
21 16.02 СВ 1 7000 м 8/5 480 м
[Sc Ac As Ci fib]
+24.2 +23.9 98 +33 +33 очень
душно
1011.5 1010.9
00 17.02 СВ 1 5000 м гроза без осадков 6/4 500 м
[Cb calv Ac As Ci fib]
+23.6 +23.3 98 +32 +32 очень
душно
1012.1 1011.5 +23.3
03 17.02 В 1 10 км 6/4 570 м
[Sc Ac As Ci sp]
+29.2 +25.2 79 +42 +50 опасность
перегрева
1013.7 1013.1
06 17.02 ЮЗ 3 10 км 6/3 600 м
[Sc As trans Ci fib]
+31.0 +26.9 79 +48 +58 опасность
перегрева
1012.7 1012.1
09 17.02 Ю 3 8000 м 8/4 500 м
[Sc Ac und Ci sp]
+31.6 +26.8 76 +49 +52 опасность
перегрева
1009.5 1008.9
12 17.02 СВ 1 3000 м слаб. дождь {гроза} 9/6 450 м
[Cb cap Ac As Ci sp]
+24.2 +23.5 96 +33 +33 очень
душно
1011.5 1010.9 +32.4 4
15 17.02 штиль 0 6000 м 9/6
[Cb calv Ac As Ci sp]
+23.7 +23.1 96 +31 +31 очень
душно
1013.9 1013.3 1
18 17.02 штиль 0 6000 м {дождь} 9/5 500 м
[Sc Ac und Ci fib]
+23.9 +23.3 96 +32 +32 очень
душно
1012.7 1012.1 1
21 17.02 С 1 5000 м дымка 9/5 480 м
[Cu med, cong Ac und Ci]
+23.7 +22.9 95 +31 +31 очень
душно
1010.6 1010.0
00 18.02 СВ 2 7000 м {гроза} 8/5 480 м
[Cb calv Ac und Ci sp]
+23.2 +22.5 96 +32 +32 очень
душно
1011.7 1011.1 +23.2 5
03 18.02 В 1 10 км 6/3 600 м
[Sc Ac trans Ci fib]
+29.6 +24.9 76 +42 +50 опасность
перегрева
1014.3 1013.7
06 18.02 Ю 2 10 км 6/3 600 м
[Sc Ac trans Ci fib]
+31.0 +25.9 74 +46 +58 опасность
перегрева
1011.5 1010.9
09 18.02 ЮЗ 4 10 км 5/4 600 м
[Sc As op Ci sp]
+30.6 +27.2 82 +48 +52 опасность
перегрева
1008.0 1007.4
12 18.02 ЮЗ 3 8000 м 9/6 450 м
[Cb cap Ac As Ci sp]
+28.6 +26.5 88 +44 +44 опасность
перегрева
1009.5 1008.9 +31.5
15 18.02 СВ 1 6000 м 9/5 480 м
[Cb cap Ac As Ci sp]
+27.6 +25.2 87 +40 +40 очень
душно
1012.1 1011.5
18 18.02 С 1 6000 м 9/5 540 м
[Sc Ac As Ci sp]
+26.3 +25.6 96 +39 +39 очень
душно
1011.8 1011.2
21 18.02 СВ 1 6000 м 8/5 480 м
[Cb calv Ac trans Ci sp]
+25.2 +24.5 96 +35 +35 очень
душно
1010.1 1009.5
00 19.02 В 1 6000 м 9/5 480 м
[Cb calv Ac trans Ci sp]
+24.3 +23.9 98 +33 +33 очень
душно
1011.1 1010.4 +23.3
03 19.02 ЮВ 1 9000 м 5/5 540 м
[Cu Sc As trans Ci fib]
+31.7 +25.4 69 +46 +54 опасность
перегрева
1013.5 1012.9
06 19.02 Ю 2 9000 м 4/4 540 м
[Cu Sc As trans Ci fib]
+32.2 +26.1 70 +48 +60 опасность
перегрева
1012.2 1011.6

 

Местоположение метеостанции Меулабох (Индонезия): широта 4.25 долгота 96.12 высота над уровнем моря 90 м.

В архиве по умолчанию представлена погода в Меулабохе за последнюю неделю. Архивные данные за месяц целиком и за предыдущие месяцы, начиная с января 2011 года, Вы можете получить, выбрав интересующий диапазон дат из раскрывающегося списка и нажав кнопку "Ввод!".


*Определитесь, кто Вы:
робот инопланетянин человек

Внимание! Время в таблицах - всемирное. Для получения местного времени необходимо прибавить поправку, которая равна 7 ч.

Смотрите также архив погоды в соседних городах и на ближайших метеорологических станциях:

Погода в Банда-Ачехе (Индонезия) (161 км)
Погода в Лхоксёмаве (Индонезия) (162 км)
Погода в Сабанге (Индонезия) (201 км)
Погода в Белаване (Индонезия) (291 км)
Погода в Медан Полония (Индонезия) (294 км)
Погода в Гунунгситоли (Индонезия) (349 км)
Погода в Сиболге (Индонезия) (429 км)
Погода в Лангкави (Малайзия) (462 км)
Погода в Пенанге (Малайзия) (474 км)
Погода на Пхукете (Таиланд) (476 км)

Пояснения к столбцам:

Ветер - указаны скорость ветра в м/с - средняя за 10 мин, порывы в срок и между сроками (в фигурных скобках) и направление, откуда дует ветер: С - северный, СВ - северо-восточный, В - восточный, ЮВ - юго-восточный, Ю - южный, ЮЗ - юго-западный, З - западный, СЗ - северо-западный.
Видимость - горизонтальная дальность видимости в метрах или километрах. При видимости от 1 до 10 км при отсутствии осадков обычно наблюдается дымка, при ухудшении видимости до 1 км и менее - туман. В сухую погоду видимость может ухудшаться дымом, пылью или мглою.
Явления - указаны атмосферные явления, наблюдавшиеся в срок или в последний час перед сроком; фигурными скобками обозначены явления, наблюдавшиеся между сроками (за 1-3 часа до срока); квадратными скобками обозначены град или гололедные отложения с указанием их диаметра в мм.
Облачность - указаны через наклонную черту общая и нижняя облачность в баллах и высота нижней границы облаков в метрах; квадратными скобками обозначены формы облаков: Ci - перистые, Cs - перисто-слоистые, Cc - перисто-кучевые, Ac - высококучевые, As - высокослоистые, Sc - слоисто-кучевые, Ns - слоисто-дождевые, Cu - кучевые, Cb - кучево-дождевые. Подробнее классификацию облаков см. в Атласе облаков (PDF).
T - Температура воздуха - температура, измеренная на высоте 2 м над землей.
Td - Температура точки росы - температура, при понижении до которой содержащийся в воздухе водяной пар достигнет насыщения.
f - Относительная влажность воздуха - влажноcть воздуха, измеренная на высоте 2 м над землей.
Te - Эффективная температура - температура, которую ощущает одетый по сезону человек в тени. Характеристика душности погоды. При расчете учитывается влияние влажности воздуха и скорости ветра на теплоощущения человека.
Tes - Эффективная температура на солнце - температура, которую ощущает человек, с поправкой на солнечный нагрев. Характеристика знойности погоды. Зависит от высоты солнца над горизонтом, облачности и скорости ветра. Ночью, в пасмурную погоду, а также при ветре 12 м/с и более поправка равна нулю.
P - Атмосферное давление - приведенное к уровню моря атмосферное давление.
Po - Атмосферное давление - измеренное на уровне метеостанции атмосферное давление.
Tmin - Минимальная температура - минимум температуры воздуха на высоте 2 м над землей.
Tmax - Максимальная температура - максимум температуры воздуха на высоте 2 м над землей.
R - Количество осадков - Количество выпавших осадков за период времени, мм. При наведении курсора мыши на число - период времени, за который выпало указанное количество осадков.
R24 - Количество осадков - Количество выпавших осадков за 24 часа, мм.
S - Снежный покров - Высота снежного покрова, см. При наведении курсора мыши на число - состояние снежного покрова и степень покрытия местности в баллах.